Tracking 22441 objects as of 1-Mar-2021
HD Live streaming from Space Station
objects crossing your sky now

PEGASUS R/B

Track PEGASUS R/B now!
10-day predictions


NORAD ID: 22491
Int'l Code: 1993-009C
Perigee: 688.0 km
Apogee: 755.5 km
Inclination: 25.0 °
Period: 99.1 minutes
Semi major axis: 7092 km
RCS: 0.1679 m2 (medium)
Launch date: February 9, 1993
Source: United States (US)
Launch site: AIR FORCE EASTERN TEST RANGE (AFETR)

Note: This is a ROCKET BODY
aabbcc
Your satellite tracking list
Your tracking list is empty




NASA's NSSDC Master Catalog

Two Line Element Set (TLE):
1 22491U 93009C   21060.08914613  .00000315  00000-0  27049-4 0  9995
2 22491  24.9785 326.5679 0047557 219.3701 140.3346 14.53387440487946
Source of the keplerian elements: AFSPC